STARLINK-31858, 59658

Orbit data source: Space-Track

STARLINK-31858, 59658 is a payload satellite owned by SpaceX/Seattle (US) in LEO that was launched on Mon, 06 May 2024 UTC via an FALCON 9 launch vehicle from the Air Force Eastern Test Range (AFETR). Payload-class satellites include a variety of spacecraft equipped with specific instruments for various scientific and technological missions. These include communications satellites like Starlink; space stations such as the ISS; scientific satellites like the Hubble; Earth observation satellites from companies like Planet Labs, Umbra, and HawkEye 360; GPS; miniature CubeSats for education and research; and military/defense satellites.

Loading next visibility...
Identifier
59658, 2024-084E
Orbit
LEO
Country
Flag of USUS
Related business
Manufacturer
SpaceX/Seattle
Mission
Operational spacecraft
Bus & Motor
STARLINK V2M, Unknown motor
Mass
730 kg wet, ~700 kg dry
Launch date (UTC)
2024-05-06 (1 year ago)
Launch vehicle
FALCON 9
Launch site
Air Force Eastern Test Range (AFETR)
Object type
Payload
Rocket body
Debris
Shape & HBR
Unknown
Radar Cross Section
Large (>1 m²)

Expand to show TLE details & history
Last TLE update: 19 hours ago

TLE from 19 hours ago
0 STARLINK-31858
1 59658U 24084E   25241.76316435 -.00003544  00000-0 -11945-3 0  9991
2 59658  43.0026  45.4235 0001207 285.3358  74.7360 15.27545992 75027
Epoch: 2025-08-29T18:18Z
TLE epoch observation values (Epoch: 2025-08-29T18:18:57.399Z)
Latitude
-0.00005°
Longitude
152.47714°
Altitude
482.709 km
Speed
7.626 km/s
True Right ascension
03h 01m 41s
True Declination
0° 00' 00"
Sunlit
Object was in full shadow at epoch
Visualization orbit readout
Latitude
Unknown
Longitude
Unknown
Altitude
Unknown
Speed
Unknown
Apparent Right ascension
Unknown
Apparent Declination
Unknown
Sunlit
N/A
Visualization observer readout
Local Sidereal Time
05:18:57
Azimuth
Unknown
Elevation
Unknown
Doppler factor
Unknown
Orbital elements
Apogee altitude
485.924 km
Perigee altitude
484.267 km
Semi-major axis
6,863.233 km
Eccentricity
0.00012
Inclination
43.0026°
RAAN
45.4235°
Arg. of periapsis
285.3358°
True anomaly
74.74934°
Mean anomaly
74.736°
Eccentric anomaly
74.74267°
Mean motion
3.81725 °/min
Orbital period
94.31 mins
BSTAR
-0.00011945
Loading maneuver chart data...
Computing Atmospheric mass density...
Loading historical data...
Loading historical data...
Loading historical data...
Loading historical data...
Loading historical data...
Loading historical data...
Loading historical data...

Documentation

Showing up to 5 results
|